This demonstration page uses our WeatherBlox Daily Observations layout. Learn more.

Left ArrowRight Arrow

38.83388, -104.82136

Hourly Observations for January 5, 2022

Temp ( °F °C ) Dew Point ( °F °C ) Humidity (%) Winds ( mph kmh ) Pressure ( in mb ) Visibility ( mi km ) Precip ( " mm )
12:54 am 00:54 Mostly Clear 35 1.7 9 -12.8 34 34 NE 5 7 29.92 1013 10 16 0.00 0.00
1:54 am 01:54 Mostly Clear 25 -3.9 17 -8.3 72 72 S 17 28 29.99 1016 10 16 0.00 0.00
2:39 am 02:39 Mostly Cloudy 24 -4.4 17 -8.3 75 75 S 16 26 30.17 1022 10 16 0.00 0.00
2:54 am 02:54 Mostly Cloudy 25 -3.9 18 -7.8 75 75 S 10 17 29.99 1016 10 16 0.00 0.00
3:21 am 03:21 Cloudy 24 -4.4 18 -7.8 77 77 SE 8 13 30.16 1021 10 16 0.00 0.00
3:39 am 03:39 Cloudy 24 -4.4 19 -7.2 81 81 S 9 15 30.16 1021 8 13 0.00 0.00
3:54 am 03:54 Cloudy 24 -4.4 19 -7.2 81 81 SE 9 15 30.00 1016 7 11 0.00 0.00
4:08 am 04:08 Cloudy with Mist and Fog 25 -4 19 -7 80 80 SSE 8 13 30.14 1021 6 10 0.00 0.00
4:28 am 04:28 Cloudy with Mist and Fog 24 -4.4 18 -7.8 77 77 E 7 11 30.15 1021 2 2 0.00 0.00
4:33 am 04:33 Cloudy with Mist and Fog 24 -4.4 18 -7.8 77 77 E 9 15 30.15 1021 1 1 0.00 0.00
4:41 am 04:41 Mostly Cloudy with Freezing Fog 23 -5 18 -7.8 81 81 E 9 15 30.15 1021 0 0 0.00 0.00
4:54 am 04:54 Mostly Cloudy with Freezing Fog 23 -5 18 -7.8 81 81 E 9 15 30.01 1016 0 0 0.00 0.00
5:16 am 05:16 Mostly Cloudy with Freezing Fog 24 -4.4 18 -7.8 77 77 E 7 11 30.13 1020 0 0 0.00 0.00
5:23 am 05:23 Cloudy with Mist and Fog 24 -4.4 18 -7.8 77 77 E 7 11 30.14 1021 1 1 0.00 0.00
5:45 am 05:45 Cloudy with Mist and Fog 24 -4.4 18 -7.8 77 77 E 3 6 30.13 1020 1 2 0.00 0.00
5:47 am 05:47 Cloudy with Mist and Fog 24 -4.4 18 -7.8 77 77 E 3 6 30.12 1020 2 3 0.00 0.00
5:54 am 05:54 Cloudy with Mist and Fog 24 -4.4 18 -7.8 77 77 E 3 6 29.98 1015 2 3 0.00 0.00
6:03 am 06:03 Cloudy with Mist and Fog 24 -4.4 18 -7.8 77 77 ESE 5 7 30.11 1020 4 6 0.00 0.00
6:27 am 06:27 Cloudy 24 -4.4 18 -7.8 77 77 E 6 9 30.11 1020 8 13 0.00 0.00
6:54 am 06:54 Mostly Cloudy 24 -4.4 18 -7.8 77 77 ESE 3 6 29.96 1015 10 16 0.00 0.00
7:54 am 07:54 Mostly Cloudy 25 -3.9 18 -7.8 75 75 S 3 6 29.94 1014 10 16 0.00 0.00
8:04 am 08:04 Mostly Cloudy 25 -3.9 18 -7.8 75 75 Calm 30.03 1017 10 16 0.00 0.00
8:54 am 08:54 Mostly Cloudy 25 -3.9 19 -7.2 78 78 SSW 5 7 29.92 1013 10 16 0.00 0.00
9:54 am 09:54 Partly Cloudy 28 -2.2 19 -7.2 69 69 ESE 5 7 29.88 1012 10 16 0.00 0.00
10:54 am 10:54 Partly Cloudy 31 -0.6 19 -7.2 61 61 ESE 3 6 29.83 1010 10 16 0.00 0.00
11:54 am 11:54 Partly Cloudy 35 1.7 19 -7.2 52 52 S 3 6 29.77 1008 10 16 0.00 0.00
12:54 pm 12:54 Partly Cloudy 40 4.4 21 -6.1 47 47 ESE 8 13 29.67 1005 10 16 0.00 0.00
1:54 pm 13:54 Partly Cloudy 45 7.2 22 -5.6 40 40 ESE 12 19 29.68 1005 10 16 0.00 0.00
2:54 pm 14:54 Mostly Cloudy 52 11.1 17 -8.3 25 25 SW 7 11 29.64 1004 10 16 0.00 0.00
3:13 pm 15:13 Mostly Cloudy 55 12.8 16 -8.9 21 21 NW 26 43 29.42 996 10 16 0.00 0.00
3:54 pm 15:54 Mostly Cloudy 53 11.7 17 -8.3 24 24 NW 22 35 29.66 1005 10 16 0.00 0.00
4:22 pm 16:22 Mostly Cloudy 46 8 19 -7 34 34 N 17 28 29.57 1001 10 16 0.00 0.00
4:54 pm 16:54 Mostly Cloudy 36 2.2 20 -6.7 52 52 N 26 43 29.81 1009 10 16 0.00 0.00
5:54 pm 17:54 Mostly Cloudy 27 -2.8 16 -8.9 63 63 N 17 28 29.91 1013 10 16 0.00 0.00
6:06 pm 18:06 Mostly Cloudy 27 -3 16 -9 64 64 N 18 30 29.91 1013 10 16 0.00 0.00
6:54 pm 18:54 Mostly Cloudy 24 -4.4 12 -11.1 60 60 NNE 10 17 29.94 1014 10 16 0.00 0.00
7:54 pm 19:54 Mostly Cloudy 20 -6.7 8 -13.3 60 60 E 8 13 29.98 1015 10 16 0.00 0.00
8:54 pm 20:54 Cloudy 20 -6.7 6 -14.4 55 55 SW 5 7 30.03 1017 10 16 0.00 0.00
9:06 pm 21:06 Cloudy 19 -7.2 5 -15 54 54 SW 7 11 30.13 1020 10 16 0.00 0.00
9:18 pm 21:18 Cloudy with Light Snow 19 -7.2 5 -15 54 54 W 7 11 30.14 1021 10 16 0.00 0.00
9:54 pm 21:54 Cloudy with Light Snow 19 -7.2 6 -14.4 57 57 SSE 7 11 30.08 1019 10 16 0.00 0.00
10:54 pm 22:54 Cloudy with Light Snow 15 -9.4 4 -15.6 61 61 SW 13 20 30.11 1020 8 13 0.00 0.00
11:09 pm 23:09 Cloudy with Light Snow 14 -10 3 -16.1 61 61 SW 15 24 30.28 1026 7 11 0.00 0.00
11:29 pm 23:29 Cloudy with Light Snow 13 -10.6 2 -16.7 61 61 SW 13 20 30.30 1026 7 11 0.00 0.00
11:54 pm 23:54 Cloudy with Light Snow 12 -11.1 2 -16.7 64 64 SSW 13 20 30.11 1020 4 6 0.00 0.00

Powered by AerisWeather